{"data":{"norad_id":67321,"intl_designator":"2026-002S","name":"STARLINK-36462","alt_names":[],"object_type":"PAYLOAD","status":"ACTIVE","operator":null,"country":"US","launch_date":"2026-01-04","launch_site_code":"AFETR","launch_vehicle":null,"mission":null,"orbit_class":"UNKNOWN","rcs_meters":null,"size_class":null,"mass_kg":null,"dimensions":null,"purposes":["comms"],"wikipedia_slug":null,"has_3d_model":false,"image_url":null,"decayed_at":null,"tle_current":{"epoch":"2026-09-19T11:30:40.467456Z","epoch_age_seconds":163398,"freshness":"FRESH","line1":"1 67321U 26002S   26262.47963504  .00013218  00000+0  48874-3 0  9993","line2":"2 67321  43.0045 311.1047 0002770 300.0653  59.9924 15.27596168 40717","mean_motion":15.27596168,"eccentricity":0.000277,"inclination_deg":43.0045,"raan_deg":311.1047,"arg_perigee_deg":300.0653,"mean_anomaly_deg":59.9924,"bstar":0.00048874,"rev_number":4071,"period_min":94.265750999187,"perigee_km":481.10014851987,"apogee_km":484.90121879662,"semimajor_km":6861.1376836582,"source":"CELESTRAK","updated_at":"2026-09-20T09:00:43.506663Z"}}}